Wind_Speed
20 19 17 15 15 14 16 20 23 26 27 28 29 29 29 28 28 29 30 31 31 31 31 32 31 31 33 36 36 36 37 38 38 38 38 40 42 44 46 43 42 41 39
21 20 19 17 16 16 19 21 25 27 28 29 28 27 27 27 29 30 31 31 31 31 31 30 30 31 32 33 34 36 38 40 40 40 41 42 43 44 46 48 48 45 44
22 21 20 19 18 18 19 23 27 28 28 27 26 26 26 27 27 28 29 29 29 30 31 33 33 32 31 32 30 32 34 38 41 43 43 43 45 45 46 47 49 52 49
24 23 21 19 20 18 20 24 27 27 27 25 26 27 28 27 27 26 27 27 28 29 30 31 32 33 33 33 32 31 30 33 35 39 42 45 46 46 46 48 49 50 53
25 23 21 19 19 19 22 25 27 26 24 25 26 27 27 27 27 26 26 26 26 27 29 30 30 30 30 31 32 32 33 32 33 34 37 41 46 48 48 48 49 49 51
25 23 21 19 19 20 23 24 24 23 24 25 26 27 27 27 26 26 26 27 26 26 26 27 28 28 28 29 29 31 31 30 33 33 36 38 42 46 48 49 48 49 51
26 22 20 20 20 21 22 23 22 21 23 24 24 25 25 24 24 26 27 27 27 25 24 25 25 26 27 27 28 29 30 30 31 33 35 37 39 43 46 47 48 48 51
25 21 21 21 20 20 21 21 19 21 22 23 22 22 22 23 24 25 26 26 25 24 25 26 26 27 25 26 27 28 29 30 31 32 33 36 37 39 42 44 46 47 50
24 24 22 20 19 19 20 19 19 20 22 21 21 20 20 23 25 25 25 24 24 25 25 24 25 25 25 25 26 27 27 28 29 31 32 33 35 35 38 40 44 46 51
26 24 21 20 19 19 19 18 19 21 21 19 18 18 20 21 23 23 21 22 22 22 22 23 24 25 26 25 25 25 24 24 26 29 30 29 32 33 34 36 40 44 49
26 24 23 20 19 19 18 18 19 19 19 18 17 18 20 20 18 18 20 21 20 19 20 22 23 24 25 26 25 25 25 25 25 24 24 24 25 27 28 31 36 40 41
27 25 21 20 19 18 18 17 19 19 18 17 16 17 18 15 14 15 17 19 21 20 20 22 23 24 24 24 24 25 25 24 23 22 21 19 21 18 19 22 25 28 32
25 23 23 22 19 18 17 18 18 19 18 17 16 16 15 13 13 15 17 18 20 20 18 20 21 23 23 22 23 23 22 21 19 19 19 19 18 19 16 12 13 17 21
27 29 25 23 19 18 17 17 18 19 17 15 14 15 12 12 14 15 16 17 18 18 18 18 19 22 21 21 20 19 18 17 16 16 16 16 16 17 17 17 13 11 12
34 30 26 23 21 19 17 17 18 18 16 15 15 13 12 14 14 15 16 16 17 18 17 17 17 19 20 18 17 15 14 14 15 15 15 16 16 15 15 15 15 15 13
36 32 27 25 22 19 18 17 18 17 15 15 14 13 14 14 14 14 15 16 17 17 16 17 16 17 18 16 15 14 14 15 15 16 16 17 17 17 16 15 15 15 15
37 31 30 29 22 21 19 17 17 17 16 15 13 14 14 14 14 15 15 15 16 16 16 16 15 16 17 16 16 16 15 15 16 17 18 19 18 19 19 17 17 16 15
37 35 34 28 24 22 19 18 17 16 16 13 13 15 13 14 14 15 15 16 16 15 15 15 15 16 17 15 13 13 15 16 18 20 21 22 22 21 21 21 20 18 17
40 37 35 30 27 24 20 19 17 15 15 13 14 14 13 14 14 14 15 16 15 15 15 14 13 13 14 15 16 15 17 19 21 22 24 24 24 24 23 23 22 21 20
40 39 38 34 29 25 22 19 16 15 15 13 15 13 13 13 14 14 15 15 14 15 15 15 11 10 12 13 14 17 20 22 23 24 26 26 25 25 24 22 22 23 23
42 45 42 36 32 24 20 18 16 16 16 14 15 13 14 13 14 14 15 15 15 15 14 13 12 11 13 14 16 18 20 23 24 28 28 26 24 24 23 22 20 20 20
45 46 43 40 29 22 19 20 18 18 15 15 15 14 14 13 15 14 15 15 15 16 15 13 14 15 15 17 19 21 22 23 24 27 26 27 27 27 27 26 25 22 21
45 45 38 35 28 20 21 19 20 18 16 16 15 15 14 15 14 13 14 14 15 15 15 15 15 15 16 18 19 22 25 27 29 26 26 27 28 29 28 28 27 26 25
43 44 35 33 25 23 19 23 21 19 16 16 17 14 15 15 13 14 14 13 14 14 15 16 16 16 17 18 18 21 24 29 30 29 28 27 28 28 29 29 29 29 27
42 37 36 34 25 22 24 23 21 19 17 17 16 15 16 14 14 14 14 14 15 15 16 16 17 17 17 18 20 23 26 28 28 29 29 28 28 30 29 30 28 29 30
38 33 40 29 23 26 24 22 21 19 19 17 16 17 16 14 14 14 14 15 15 16 18 18 18 19 19 20 21 24 26 27 29 29 28 27 27 27 28 29 31 29 29
Wind_Direction
252 252 256 262 271 284 299 298 300 302 308 317 320 320 317 314 311 309 307 304 303 301 297 296 295 291 287 284 284 282 278 274 270 266 264 261 256 254 250 248 246 245 244
251 252 255 261 271 284 291 299 299 302 308 313 316 314 310 309 307 304 304 303 302 301 299 298 295 293 291 289 286 282 278 275 271 266 263 260 258 256 252 247 244 245 245
252 254 259 266 276 285 296 297 297 301 307 312 315 311 308 307 305 305 304 302 301 301 300 300 299 298 296 294 291 287 282 277 275 272 266 261 258 256 254 250 245 241 243
252 254 258 268 278 288 292 294 298 303 308 314 314 312 313 313 310 307 306 306 306 306 304 303 301 299 298 297 295 291 288 284 279 274 270 266 260 256 254 251 248 244 240
252 255 261 270 279 288 294 296 301 305 313 314 312 313 313 311 311 311 311 312 312 309 308 306 303 301 301 299 297 294 292 290 287 281 275 268 264 260 257 252 249 245 242
252 255 262 271 279 285 288 295 303 305 309 312 313 313 312 312 312 313 315 315 314 311 308 305 304 304 305 305 305 303 303 299 292 288 281 274 267 263 259 258 251 247 242
249 253 262 268 276 284 291 298 299 304 308 309 310 311 312 312 311 313 315 314 312 308 309 309 308 306 306 306 307 307 307 306 303 296 289 282 273 266 261 258 256 249 244
250 256 262 268 276 285 293 296 298 305 307 308 308 308 311 311 310 312 313 312 311 315 314 311 307 306 305 302 300 303 305 307 308 307 299 287 278 271 266 260 257 253 246
252 252 256 264 273 283 292 293 300 306 307 308 307 307 309 310 310 313 312 312 319 314 311 310 309 308 307 309 309 308 309 308 309 313 306 289 281 275 269 264 259 253 250
247 250 257 265 273 282 288 295 300 302 303 302 300 303 308 308 308 307 311 318 313 312 314 312 312 313 315 316 319 320 320 322 322 323 320 298 286 280 270 263 260 256 253
246 250 254 261 271 279 287 291 296 300 300 299 300 306 306 302 300 311 313 312 310 315 315 310 310 309 310 313 316 317 317 321 321 326 335 325 297 289 279 268 262 261 259
245 247 252 261 270 279 283 291 296 299 298 296 300 301 297 296 309 309 309 309 311 313 310 307 307 309 311 314 318 318 319 316 314 321 330 341 337 324 297 281 274 268 263
247 249 253 259 266 274 283 289 296 298 293 294 297 298 296 307 310 308 307 306 307 311 312 310 310 312 315 319 317 316 313 312 319 326 330 332 343 354 353 337 306 287 272
247 243 246 254 265 271 280 288 295 291 289 291 297 292 301 306 304 304 304 305 309 312 312 310 311 312 313 313 313 312 314 322 327 329 331 336 345 350 356 1 350 324 302
241 239 243 250 259 267 272 287 290 291 289 292 289 296 304 302 304 303 304 308 310 310 313 312 314 311 312 314 313 317 324 331 336 336 339 342 346 351 351 353 353 353 341
233 233 240 247 252 261 270 281 288 289 287 284 289 300 299 298 298 298 305 309 310 309 313 313 316 314 311 313 317 327 332 336 341 342 343 344 346 348 349 350 349 347 346
229 229 237 242 246 255 265 275 283 283 280 279 293 294 294 293 294 302 306 309 308 309 314 314 317 318 316 318 323 329 335 342 345 345 342 343 343 343 342 343 344 342 341
226 229 234 237 242 252 260 270 278 275 272 282 289 287 286 289 295 301 306 309 309 311 312 315 319 322 319 319 320 328 336 342 344 342 340 338 338 336 334 334 334 334 334
227 230 234 232 238 248 255 263 270 264 270 279 280 279 279 285 292 299 305 309 311 311 310 311 314 319 318 320 325 332 338 340 338 337 335 333 332 329 329 327 326 325 325
229 232 233 230 233 240 250 259 260 260 265 271 271 271 275 283 291 298 304 307 310 309 309 307 309 315 314 314 317 325 331 330 327 328 329 328 327 327 326 326 323 321 319
230 234 236 231 231 234 247 257 252 257 264 267 263 266 272 279 286 294 302 306 310 309 307 307 309 311 310 308 309 312 315 319 322 326 328 330 330 331 329 328 327 324 320
231 235 239 244 232 234 243 251 247 251 256 257 256 261 267 275 281 293 300 307 311 309 307 305 307 309 307 304 307 310 312 315 320 327 329 331 332 332 331 329 328 327 326
234 235 237 239 230 228 242 240 245 250 251 254 256 258 264 269 277 288 298 307 307 304 304 303 304 307 306 306 308 314 319 322 326 329 334 334 333 332 331 330 326 323 321
230 234 232 244 219 228 232 238 242 247 249 250 252 256 261 264 271 282 296 303 302 303 301 301 303 306 306 309 312 316 321 325 329 334 337 335 333 332 330 329 327 324 320
228 229 235 220 216 224 230 230 237 242 244 244 247 252 255 259 267 281 294 299 303 307 304 303 305 308 311 314 319 322 326 328 330 333 335 333 333 333 332 329 327 326 322
224 225 226 206 213 226 223 229 236 240 242 244 245 248 252 255 264 278 289 297 304 307 308 309 309 312 315 318 320 322 327 330 333 333 332 333 333 332 333 334 331 329 325
Height
3123 3125 3126 3126 3126 3125 3124 3124 3124 3123 3122 3120 3117 3115 3113 3110 3108 3106 3105 3104 3102 3101 3099 3097 3096 3096 3094 3092 3093 3093 3092 3091 3092 3093 3094 3095 3095 3097 3100 3103 3106 3109 3111
3120 3121 3121 3121 3121 3120 3120 3119 3119 3118 3117 3115 3112 3110 3109 3107 3104 3102 3100 3097 3096 3094 3093 3091 3090 3089 3087 3085 3085 3084 3083 3081 3081 3082 3083 3084 3085 3087 3089 3092 3096 3100 3103
3115 3115 3116 3116 3117 3116 3115 3115 3114 3113 3111 3108 3106 3105 3104 3101 3099 3096 3094 3092 3090 3088 3087 3085 3082 3081 3080 3078 3077 3075 3075 3073 3072 3072 3072 3073 3074 3076 3079 3081 3084 3087 3092
3109 3110 3110 3111 3112 3111 3111 3110 3109 3107 3105 3102 3101 3099 3097 3095 3093 3092 3090 3088 3085 3083 3080 3078 3076 3074 3072 3071 3069 3067 3066 3064 3063 3062 3062 3062 3063 3064 3066 3069 3072 3077 3080
3104 3105 3106 3106 3106 3106 3105 3104 3102 3101 3098 3096 3095 3093 3092 3090 3088 3085 3084 3082 3080 3078 3075 3072 3069 3067 3066 3063 3061 3059 3057 3056 3055 3053 3052 3052 3051 3053 3054 3056 3060 3064 3068
3098 3099 3101 3101 3101 3100 3100 3099 3098 3095 3094 3093 3091 3089 3087 3084 3082 3080 3079 3078 3075 3073 3070 3067 3064 3061 3059 3057 3054 3051 3049 3046 3045 3043 3042 3041 3040 3041 3043 3044 3047 3051 3054
3092 3093 3094 3096 3096 3095 3095 3094 3093 3091 3090 3089 3087 3085 3082 3079 3078 3075 3073 3072 3070 3068 3064 3060 3058 3057 3052 3052 3048 3045 3042 3039 3037 3034 3032 3030 3030 3029 3030 3032 3034 3038 3042
3086 3087 3088 3090 3090 3090 3089 3089 3088 3086 3085 3083 3082 3079 3077 3076 3072 3070 3067 3065 3064 3061 3058 3055 3053 3052 3048 3046 3043 3041 3037 3034 3030 3026 3023 3021 3018 3019 3019 3019 3022 3024 3028
3079 3080 3082 3083 3084 3084 3084 3084 3083 3081 3079 3077 3076 3075 3071 3070 3068 3065 3063 3060 3056 3056 3054 3052 3048 3046 3044 3040 3038 3035 3031 3027 3023 3018 3015 3013 3010 3008 3008 3008 3009 3010 3013
3072 3075 3077 3078 3079 3078 3078 3078 3078 3077 3075 3073 3071 3070 3067 3066 3064 3062 3059 3055 3053 3053 3049 3046 3044 3042 3038 3035 3031 3029 3025 3022 3017 3013 3009 3005 3002 3000 2998 2997 2997 2999 3001
3068 3070 3071 3073 3073 3073 3072 3072 3072 3071 3070 3068 3066 3064 3063 3062 3061 3056 3053 3053 3052 3051 3046 3043 3041 3038 3035 3031 3028 3025 3022 3018 3014 3011 3006 3000 2996 2992 2989 2988 2989 2990 2992
3063 3064 3066 3068 3068 3068 3068 3066 3066 3066 3065 3063 3061 3060 3060 3058 3054 3052 3051 3049 3048 3047 3043 3040 3038 3034 3031 3027 3024 3021 3017 3015 3012 3008 3003 2999 2994 2988 2984 2982 2981 2981 2982
3058 3060 3062 3062 3063 3063 3062 3061 3060 3060 3059 3058 3056 3055 3055 3052 3051 3049 3048 3046 3044 3043 3039 3037 3034 3031 3027 3024 3021 3018 3016 3013 3009 3005 3001 2997 2992 2987 2982 2979 2977 2975 2975
3050 3053 3054 3057 3058 3057 3058 3057 3055 3055 3054 3053 3050 3050 3048 3047 3047 3045 3043 3043 3041 3039 3035 3034 3030 3027 3025 3022 3019 3017 3013 3010 3006 3002 2999 2995 2991 2986 2982 2978 2974 2972 2971
3041 3046 3048 3049 3052 3052 3052 3050 3051 3049 3048 3047 3047 3045 3043 3042 3042 3041 3040 3038 3037 3035 3032 3030 3027 3025 3022 3019 3017 3014 3011 3008 3004 3001 2997 2993 2989 2985 2981 2977 2974 2971 2968
3032 3036 3039 3042 3044 3047 3048 3043 3045 3044 3043 3043 3041 3039 3038 3038 3038 3037 3036 3034 3033 3031 3028 3026 3023 3021 3019 3017 3014 3011 3008 3005 3002 2998 2995 2991 2987 2983 2979 2975 2972 2969 2966
3025 3027 3029 3035 3036 3041 3041 3037 3038 3039 3040 3039 3035 3036 3035 3034 3034 3033 3032 3030 3029 3028 3024 3023 3020 3018 3016 3013 3011 3008 3005 3002 3000 2996 2993 2989 2985 2981 2977 2973 2969 2966 2963
3016 3019 3023 3026 3030 3033 3033 3032 3033 3033 3035 3033 3031 3032 3031 3031 3029 3028 3028 3027 3026 3023 3021 3019 3017 3014 3013 3011 3009 3006 3003 3000 2997 2994 2990 2986 2982 2978 2974 2969 2966 2962 2959
3009 3013 3016 3017 3022 3025 3026 3026 3026 3028 3029 3027 3028 3028 3027 3027 3026 3024 3024 3023 3021 3020 3018 3016 3014 3012 3010 3008 3006 3004 3001 2997 2994 2991 2987 2983 2978 2973 2969 2965 2961 2958 2955
3003 3007 3008 3010 3015 3017 3020 3021 3022 3022 3023 3021 3024 3023 3023 3022 3023 3021 3020 3019 3018 3016 3015 3013 3010 3009 3008 3007 3005 3002 2998 2995 2992 2988 2983 2978 2974 2969 2965 2961 2957 2953 2950
2995 2998 3000 3004 3008 3010 3014 3015 3015 3016 3019 3016 3019 3018 3018 3018 3019 3018 3017 3015 3014 3012 3011 3009 3008 3005 3004 3003 3002 3000 2997 2993 2989 2984 2977 2973 2969 2964 2960 2957 2954 2951 2948
2985 2989 2994 2997 3001 3003 3007 3009 3009 3010 3010 3012 3013 3013 3014 3014 3015 3014 3013 3011 3010 3009 3007 3005 3004 3003 3000 2998 2997 2996 2993 2990 2986 2980 2973 2967 2962 2958 2954 2951 2948 2946 2943
2976 2980 2985 2990 2993 2997 3000 3003 3004 3004 3004 3006 3008 3009 3009 3010 3011 3010 3009 3007 3007 3005 3003 3002 3001 2999 2997 2994 2992 2990 2987 2983 2978 2974 2968 2962 2957 2953 2949 2946 2942 2938 2936
2965 2970 2978 2982 2986 2990 2991 2995 2997 2998 2999 3001 3003 3003 3004 3005 3006 3006 3005 3004 3004 3002 3000 2999 2997 2995 2993 2990 2988 2985 2982 2977 2971 2966 2961 2957 2952 2948 2944 2941 2936 2932 2930
2953 2963 2970 2973 2978 2981 2985 2988 2990 2991 2993 2995 2996 2998 3000 2999 3001 3001 3000 3000 2999 2998 2996 2995 2993 2990 2987 2986 2983 2980 2977 2972 2966 2961 2956 2952 2948 2942 2939 2935 2932 2927 2923
2946 2955 2963 2966 2971 2975 2977 2982 2985 2986 2988 2990 2991 2993 2994 2995 2996 2996 2996 2995 2994 2993 2992 2990 2987 2984 2982 2981 2978 2975 2971 2966 2961 2956 2952 2948 2943 2940 2936 2929 2925 2923 2919